Home > Weather > Guimarães > Past weeks

Flag for Portugal Past Weather in Guimarães, Portugal — Yesterday and Last 2 Weeks

Now
70 °F

Mild.


Feels Like: 70 °F
Forecast: 55 / 84 °F
Wind: 8 mph from Northwest

Location: Porto / Pedras Rubras

Current Time: Jul 1, 2016 at 2:33:42 PM

Latest Report: Jul 1, 2016 at 1:00 PM


Visibility: N/A

Pressure: 30.16 "Hg

Humidity: 62%

Dew Point: 56 °F

Location of GuimarãesLocation

Past Weather in Guimarães — Graph

°F

Guimarães Temperature Yesterday

Maximum temperature yesterday: 67 °F (at 3:00 PM)
Minimum temperature yesterday: 56 °F (at 6:00 AM)
Average temperature yesterday: 62 °F

High & Low Weather Summary for the Past Weeks

 TemperatureHumidityPressure
High84 °F (Jun 27, 12:00 PM)94% (Jun 22, 9:00 AM)30.37 "Hg (Jun 22, 9:00 AM)
Low53 °F (Jun 18, 5:00 AM)22% (Jun 27, 12:00 PM)29.96 "Hg (Jun 16, 1:00 PM)
Average66 °F72%30.12 "Hg
* Reported Jun 16 1:00 PM — Jul 1 1:00 PM, Guimarães, Weather by CustomWeather, © 2016

Note: Actual official high and low records may vary slightly from our data, if they occured in-between our weather recording intervals... More about our weather records

Advertising

Guimarães Weather History for the Previous 24 Hours

Scroll right to see more
 ConditionsComfort  
Time TempWeatherWind HumidityBarometerVisibility
1:00 PM
Fri, Jul 1
70 °FMild.8 mph62%30.16 "HgN/A
12:00 PM67 °FMild.6 mph68%30.17 "HgN/A
11:00 AM65 °FMild.5 mph78%30.16 "HgN/A
10:00 AM64 °FMild.3 mph81%30.16 "HgN/A
9:00 AM63 °FMild.2 mph88%30.15 "HgN/A
8:00 AM61 °FCool.2 mph92%30.14 "HgN/A
7:00 AM60 °FCool.2 mph92%30.13 "HgN/A
6:00 AM59 °FCool.2 mph92%30.12 "HgN/A
5:00 AM59 °FCool.3 mph92%30.12 "HgN/A
4:00 AM59 °FCool.3 mph92%30.12 "HgN/A
3:00 AM60 °FCool.3 mph93%30.13 "HgN/A
2:00 AM60 °FCool.3 mph92%30.14 "HgN/A
1:00 AM60 °FCool.3 mph91%30.14 "HgN/A
12:00 AM61 °FCool.5 mph90%30.15 "HgN/A
11:00 PM
Thu, Jun 30
62 °FCool.3 mph89%30.15 "HgN/A
10:00 PM63 °FMild.3 mph88%30.14 "HgN/A
9:00 PM63 °FMild.3 mph89%30.14 "HgN/A
8:00 PM64 °FMild.3 mph84%30.13 "HgN/A
7:00 PM64 °FMild.5 mph81%30.13 "HgN/A
6:00 PM65 °FMild.5 mph79%30.13 "HgN/A
5:00 PM65 °FMild.5 mph76%30.14 "HgN/A
4:00 PM66 °FMild.5 mph73%30.14 "HgN/A
3:00 PM67 °FMild.5 mph71%30.14 "HgN/A
2:00 PM66 °FMild.5 mph71%30.14 "HgN/A
Weather by CustomWeather, © 2016

See weather overviewHow to use our weather pages